User: anonymous   Login
Location: Anjeux
(47.8815°N, 6.2076°E)
Time: 17:54:02
(UTC+00:00)
Language:

CAS-4B - Orbit

View from above orbital plane
View from above orbital plane
View from above satellite
View from above satellite

Ground track
Ground track

The orbit data is extracted from the following two-line orbital elements,

1 42759U 17034B   21334.14775160  .00000990  00000-0  72172-4 0  9997
2 42759  43.0192 349.9416 0006721 121.4573 288.4624 15.10573980246200
Epoch (UTC): 30 November 2021 03:32:45
Eccentricity: 0.0006721
inclination: 43.0192°
perigee height: 530 km
apogee height: 539 km
right ascension of ascending node: 349.9416°
argument of perigee: 121.4573°
revolutions per day: 15.10573980
mean anomaly at epoch: 288.4624°
orbit number at epoch: 24620

The dashed part of the orbit path shows where the satellite is in the earth's shadow,  

DLR